Location: Carabito
(9.8355°N, 67.9249°W)
Time: 14:20:19
(UTC+00:00)

CZ-4 DEB - Visible Passes

Search period start: 04 October 2024 00:00
Search period end: 14 October 2024 00:00
Orbit: 551 x 555 km, 97.6° (Epoch: 03 October)

Date Brightness Start Highest point End Pass type
(mag) Time Alt. Az. Time Alt. Az. Time Alt. Az.
04 Oct ? 00:00:03 10° SSW 00:03:02 21° W 00:06:01 10° NW visible
04 Oct ? 23:56:30 10° SSW 23:59:39 23° W 00:02:49 10° NW visible
05 Oct ? 23:52:56 10° SSW 23:56:15 26° W 23:59:33 10° NW visible
06 Oct ? 23:49:23 10° SSW 23:52:50 29° W 23:56:17 10° NW visible
07 Oct ? 23:45:50 10° SSW 23:49:23 32° W 23:52:57 10° NW visible
08 Oct ? 23:42:16 10° SSW 23:45:56 37° W 23:49:36 10° NNW visible
09 Oct ? 23:38:42 10° S 23:42:27 42° W 23:46:11 10° NNW visible
10 Oct ? 23:35:08 10° S 23:38:57 47° W 23:42:45 10° NNW visible
11 Oct ? 23:31:34 10° S 23:35:25 54° W 23:39:17 10° NNW visible
12 Oct ? 23:27:58 10° S 23:31:53 63° W 23:35:47 10° NNW visible
13 Oct ? 23:24:22 10° S 23:28:18 72° WSW 23:32:14 10° NNW visible
